Vertical_Velocity
-4 -3 -2 -2 -4 -4 -2 -1 1 -0 -0 -0 -1 -1 -1 1 2 2 4 3 2 0
-2 2 -0 -2 -3 -4 -3 -0 -1 1 -0 0 -1 -1 -2 -2 3 1 3 6 2 2
-3 -1 1 -1 -1 -1 -1 -1 -1 0 1 1 -2 -1 -1 -2 -2 2 -5 3 2 -2
1 1 -1 0 -0 -4 -1 -0 0 0 0 1 -1 -1 0 -1 -3 -2 2 -2 0 4
-1 -0 2 3 1 -2 -1 -1 1 0 1 1 -1 -2 -1 0 -2 -1 -1 -5 0 -1
-1 -0 2 2 -1 -2 -0 -1 0 -0 1 2 -0 -1 -2 -1 1 -1 -1 -7 -3 -6
-1 0 -1 1 -0 -1 1 0 -1 1 -1 1 1 -0 -1 -3 -2 -1 -4 -3 -1 -2
-1 -4 -2 2 1 -1 -1 -0 -0 -1 0 0 1 0 1 -1 -0 -0 -2 -0 -3 1
-4 -0 0 2 3 -1 -2 -2 -0 -1 -1 0 1 0 -1 -0 -2 -2 0 -3 -3 -6
-2 -1 1 -1 2 2 -1 -2 -1 -1 -2 -2 1 1 -0 -1 0 -1 -2 -2 -1 1
-1 1 1 -0 2 2 2 -0 -1 -1 -2 -2 -1 1 1 -1 -0 -0 -1 -2 0 -3
1 0 -1 1 4 3 2 1 1 -0 -1 -2 -2 -2 1 1 1 1 1 -1 -2 2
-1 -3 -2 -1 0 0 3 1 0 -1 -0 -1 -0 -2 -2 1 -0 -1 3 0 -2 -1
-2 -2 -1 -2 -2 -2 -2 -2 -1 -1 0 -1 -1 -0 -2 -1 -1 0 -1 1 -0 -0
Height
5605 5588 5571 5555 5540 5526 5518 5513 5509 5507 5506 5508 5511 5516 5521 5527 5533 5541 5546 5552 5563 5577
5602 5587 5570 5553 5539 5525 5516 5512 5507 5505 5504 5506 5508 5512 5517 5522 5528 5535 5541 5547 5555 5567
5600 5584 5568 5552 5538 5525 5514 5510 5506 5503 5503 5503 5505 5509 5513 5518 5524 5530 5537 5543 5549 5559
5598 5583 5566 5551 5537 5523 5512 5507 5504 5502 5501 5501 5502 5505 5509 5513 5518 5525 5532 5539 5546 5552
5596 5581 5567 5552 5537 5522 5510 5504 5502 5500 5498 5498 5500 5502 5505 5509 5514 5519 5527 5533 5538 5546
5595 5581 5567 5552 5536 5520 5507 5501 5499 5498 5497 5496 5497 5498 5501 5505 5509 5515 5520 5528 5534 5541
5595 5581 5567 5551 5535 5520 5506 5499 5497 5496 5496 5495 5495 5495 5497 5501 5505 5510 5516 5522 5529 5536
5595 5581 5567 5551 5536 5520 5506 5499 5496 5494 5494 5494 5494 5494 5494 5497 5501 5506 5511 5518 5524 5530
5595 5582 5568 5553 5538 5522 5507 5499 5495 5494 5493 5493 5493 5493 5493 5494 5497 5501 5506 5512 5518 5524
5597 5584 5570 5556 5541 5525 5510 5500 5496 5494 5493 5492 5492 5492 5492 5492 5494 5497 5501 5507 5513 5518
5600 5586 5572 5559 5544 5530 5515 5504 5497 5495 5493 5492 5491 5492 5491 5491 5492 5494 5496 5501 5507 5512
5603 5589 5575 5562 5548 5534 5520 5507 5499 5496 5494 5492 5491 5491 5491 5491 5492 5492 5493 5496 5501 5507
5605 5591 5578 5565 5552 5539 5524 5512 5502 5497 5494 5493 5491 5490 5490 5491 5491 5492 5492 5493 5495 5500
5608 5594 5582 5569 5556 5543 5528 5514 5504 5498 5494 5492 5491 5490 5489 5489 5489 5490 5491 5492 5493 5496